Home > Weather > Kailua-Kona > Past weeks

Flag for USA Weather for the Past 2 Weeks in Kailua-Kona, Hawaii, USA

Now
78 °F

Passing clouds.


Feels Like: 80 °F
Forecast: 68 / 79 °F
Wind: 3 mph from East

Location: Keahole Airport

Current Time: May 6, 2016 at 1:15:26 AM

Latest Report: May 5, 2016 at 11:53 PM


Visibility: 10 mi

Pressure: 30.05 "Hg

Humidity: 66%

Dew Point: 66 °F

Location of Kailua-KonaLocation

Historic Weather in Kailua-Kona — Graph

°F

Kailua-Kona Temperature Yesterday

Maximum temperature yesterday: 83 °F (at 11:53 AM)
Minimum temperature yesterday: 73 °F (at 4:44 AM)
Average temperature yesterday: 78 °F

High & Low Weather Summary for the Past Weeks

 TemperatureHumidityPressure
High85 °F (Apr 23, 1:53 PM)94% (Apr 24, 5:38 AM)30.09 "Hg (Apr 24, 5:38 AM)
Low72 °F (Apr 21, 4:53 AM)49% (Apr 23, 2:53 PM)29.96 "Hg (Apr 25, 4:53 PM)
Average79 °F67%30.03 "Hg
* Reported Apr 20 11:53 PM — May 5 11:53 PM, Kailua-Kona, Weather by CustomWeather, © 2016

Note: Actual official high and low records may vary slightly from our data, if they occured in-between our weather recording intervals... More about our weather records

Advertising

Kailua-Kona Weather History for the Previous 24 Hours

Scroll right to see more
 ConditionsComfort  
Time TempWeatherWind HumidityBarometerVisibility
11:53 PM
Thu, May 5
78 °FPassing clouds.3 mph66%30.05 "Hg10 mi
10:53 PM78 °FOvercast.6 mph71%30.06 "Hg10 mi
9:53 PM78 °FOvercast.3 mph74%30.05 "Hg10 mi
8:53 PM79 °FPartly cloudy.3 mph72%30.04 "Hg10 mi
7:53 PM79 °FPassing clouds.5 mph72%30.01 "Hg10 mi
6:53 PM79 °FClear.7 mph72%30.00 "Hg10 mi
5:53 PM80 °FSunny.8 mph69%29.98 "Hg10 mi
4:53 PM81 °FSunny.6 mph67%29.97 "Hg10 mi
3:53 PM81 °FOvercast.7 mph67%29.98 "Hg10 mi
2:53 PM83 °FScattered clouds.9 mph63%29.98 "Hg10 mi
1:53 PM83 °FScattered clouds.10 mph61%29.99 "Hg10 mi
12:53 PM83 °FPassing clouds.10 mph61%30.01 "Hg10 mi
11:53 AM83 °FSunny.8 mph63%30.03 "Hg10 mi
10:53 AM81 °FSunny.8 mph67%30.03 "Hg10 mi
9:53 AM80 °FPassing clouds.6 mph71%30.04 "Hg10 mi
8:53 AM79 °FPartly sunny.5 mph72%30.04 "Hg10 mi
7:53 AM77 °FScattered clouds.No wind66%30.03 "Hg10 mi
6:53 AM75 °FMostly cloudy.5 mph82%30.02 "Hg10 mi
6:04 AM73 °FCloudy.6 mph89%30.00 "Hg10 mi
5:36 AM73 °FMostly cloudy.7 mph89%29.99 "Hg10 mi
4:53 AM74 °FLight rain. Mostly cloudy.7 mph88%29.99 "Hg10 mi
4:44 AM73 °FRain. Mostly cloudy.6 mph89%29.99 "Hg2 mi
4:35 AM75 °FLight rain. Mostly cloudy.5 mph83%29.99 "Hg5 mi
3:53 AM75 °FPassing clouds.3 mph66%29.99 "Hg10 mi
2:53 AM76 °FClear.6 mph67%29.99 "Hg10 mi
1:53 AM75 °FClear.7 mph76%30.01 "Hg10 mi
Weather by CustomWeather, © 2016

See weather overviewHow to use our weather pages